ONEWEB-0146 (47292 NORAD) Tracking and Keplerian Element Data
This shows tracking and keplerian element data for the satellite.
Feedback or suggestion? Click here.
Element | Value |
Catalog | 47292 |
Name | ONEWEB-0146 |
Epoch Orbit | 174 |
Epoch Day | 62.91667824 |
Epoch Year | 2021 |
RAAN | 15.6058 |
Inclination | 87.6524 |
Eccentricity | 0.0013711 |
Argument of Perigee | 22.763 |
Mean Anonmoly | 181.7028 |
Mean Motion | 13.97376889 |
Decay Rate | -0.00028813 |
L1 | 1 47292U 20100AL 21062.91667824 -.00028813 00000-0 -20623-1 0 9999 |
L2 | 2 47292 87.6524 15.6058 0013711 22.7630 181.7028 13.97376889 1746 |
Live tracking and technical data element details for ONEWEB-0146 (NORAD 47292). ONEWEB-0146 can be tracked NOW for your location showing map with azimuth and elevation plus other details from your city location.
Track the satellite on the map from your city or location and see movement details for azimuth, elevation, latitude, longitude, range, height, and movement on the map or in text.
IsCatalogInMostPopularTable: catalog: 47292, numindb: 26
Update: records affected: 1
GetName: 47292 ONEWEB-0146
Hit Count: updated at: Fri, 05 Mar 2021 06:14:22 GMT